Satellite: FENGYUN 1D
Catalog number: 27431
Epoch time:      103052.50575447
Element set:     220 
Inclination:       98.7693 deg
RA of node:       101.4089 deg
Eccentricity:    0.0016165
Arg of perigee:   114.8743 deg
Mean anomaly:     245.4109 deg
Mean motion:   14.09179167 rev/day
Decay rate:   -5.0000E-008 rev/day^2
Epoch rev:            3978
Checksum:              300

Satellite: NOAA 17
Catalog number: 27453
Epoch time:  Element set:     311 
Inclination:       98.7555 deg
RA of node:       123.2942 deg
Eccentricity:    0.0011660
Arg of perigee:   353.8722 deg
Mean anomaly:       6.2312 deg
Mean motion:   14.23295910 rev/day
Decay rate:    3.0100E-006 rev/day^2
Epoch rev:            3432
Checksum:              274

Satellite: HOT BIRD 6
Catalog number: 27499
Epoch time:      103051.87535221
Element set:     69 
Inclination:        0.0841 deg
RA of node:       289.4691 deg
Eccentricity:    0.0009015
Arg of perigee:    81.8198 deg
Mean anomaly:     107.1356 deg
Mean motion:    1.00273966 rev/day
Decay rate:    8.1000E-007 rev/day^2
Epoch rev:             185
Checksum:              293

Satellite: RUBIN 2
Catalog number: 27605
Epoch time:      103052.43466725
Element set:     64 
Inclination:       64.5529 deg
RA of node:       188.5349 deg
Eccentricity:    0.0035995
Arg of perigee:   112.6696 deg
Mean anomaly:     247.8204 deg
Mean motion:   14.71381425 rev/day
Decay rate:    1.1310E-005 rev/day^2
Epoch rev:             923
Checksum:              306


Read previous mail | Read next mail


 19.09.2025 04:18:08lGo back Go up